Location: Poprad
(49.0500°N, 20.3000°E)
Time: 01:11:06
(UTC+01:00)

ISS - Pass Details

Date: 27 January 2021
Orbit: 417 x 422 km, 51.6° (Epoch: 06 March)

Event Time Altitude Azimuth Distance (km) Brightness Sun altitude
Rises 19:36:39 0° 288° (WNW) 2,376 1.2 -30.8°
Reaches altitude 10° 19:38:45 10° 290° (WNW) 1,510 -0.1 -31.1°
Enters shadow 19:39:07 13° 290° (WNW) 1,366 -0.4 -31.2°
